Find Starlink 37874

NORAD ID: 100300 Int'l Des: 2026-183 Owner: SPXS Country: US Constellation: starlink operational

当前视图

正在加载3D地球...

About Starlink 37874

Starlink 37874 (NORAD 100300) is a starlink constellation satellite launched Aug 11, 2026 by SPXS of US. with a mass of 575.00 kg.

即将过境

Passes for default location (London). Set your location on the main map for personalized predictions.

高度历史

Loading altitude history...

两行轨道根数

1 A0300U 26183AE 26253.61563735 -.00248388 00000-0 -17519-2 0 9997
2 A0300 53.1588 305.1847 0001593 48.3165 311.7991 15.74057139 4768
Epoch: Sep 10, 2026 • Age: 262 hours

当前状态

高度 364.9 km
远地点 / 近地点 N/A
速度 7.70 km/s
星下点 44.87°N, 161.17°W
发射日期 Aug 11, 2026
运行时间 0.1 years
类型 internet

技术详情

分类 Payload
质量 575.00 kg
干质量 530.00 kg
长度 0.30 m
跨度 29.00 m
形状 ? Box + pan
制造商 SPXS
平台类型 Starlink V2MO
阶段状态 In Orbit
所有者/国家 SPXS/US

Most Searched